| time (UTC) | temp F | wind direction | speed MPH | gust MPH | rain 1hr in | rain 24hr in | rain mn in | humidity % | barometer mb |
| 20260904031517 | 84 | 135 | 3.0 | 6.0 | 0.00 | 0.00 | 0.00 | 70 | 1011.6 |
| 20260904030516 | 84 | 113 | 4.0 | 10.0 | 0.00 | 0.00 | 0.00 | 70 | 1011.5 |
| 20260904025517 | 84 | 135 | 4.0 | 10.0 | 0.00 | 0.00 | 0.00 | 70 | 1011.4 |
| 20260904024517 | 84 | 158 | 4.0 | 8.0 | 0.00 | 0.00 | 0.00 | 70 | 1011.3 |
| 20260904023516 | 85 | 158 | 4.0 | 10.0 | 0.00 | 0.00 | 0.00 | 71 | 1011.2 |
| 20260904022517 | 85 | 158 | 5.0 | 11.0 | 0.00 | 0.00 | 0.00 | 72 | 1010.9 |
| 20260904021516 | 85 | 113 | 5.0 | 11.0 | 0.00 | 0.00 | 0.00 | 71 | 1010.6 |
| 20260904020517 | 86 | 113 | 4.0 | 10.0 | 0.00 | 0.00 | 0.00 | 69 | 1010.7 |
| 20260904015517 | 87 | 113 | 5.0 | 10.0 | 0.00 | 0.00 | 0.00 | 65 | 1010.2 |
| 20260904014517 | 87 | 135 | 4.0 | 8.0 | 0.00 | 0.00 | 0.00 | 64 | 1010.2 |
| 20260904013516 | 87 | 158 | 5.0 | 9.0 | 0.00 | 0.00 | 0.00 | 64 | 1010.0 |
| 20260904012516 | 87 | 180 | 4.0 | 10.0 | 0.00 | 0.00 | 0.00 | 64 | 1009.9 |
| 20260904011517 | 88 | 158 | 5.0 | 10.0 | 0.00 | 0.00 | 0.00 | 64 | 1009.8 |
| 20260904010517 | 88 | 135 | 4.0 | 11.0 | 0.00 | 0.00 | 0.00 | 64 | 1009.7 |
| 20260904005517 | 89 | 135 | 4.0 | 10.0 | 0.00 | 0.00 | 0.00 | 64 | 1009.5 |
| 20260904004517 | 89 | 158 | 6.0 | 12.0 | 0.00 | 0.00 | 0.00 | 63 | 1009.5 |
| 20260904003517 | 90 | 135 | 4.0 | 9.0 | 0.00 | 0.00 | 0.00 | 63 | 1009.5 |
| 20260904002537 | 90 | 135 | 5.0 | 11.0 | 0.00 | 0.00 | 0.00 | 63 | 1009.5 |
| 20260904001537 | 91 | 158 | 4.0 | 12.0 | 0.00 | 0.00 | 0.00 | 62 | 1009.4 |
| 20260904000517 | 91 | 135 | 5.0 | 12.0 | 0.00 | 0.00 | 0.00 | 62 | 1009.4 |
| 20260903235517 | 91 | 158 | 4.0 | 10.0 | 0.00 | 0.00 | 0.00 | 63 | 1009.3 |
| 20260903234517 | 91 | 135 | 5.0 | 10.0 | 0.00 | 0.00 | 0.00 | 62 | 1009.3 |
| 20260903233536 | 91 | 113 | 5.0 | 10.0 | 0.00 | 0.00 | 0.00 | 62 | 1009.3 |
| 20260903232516 | 91 | 135 | 4.0 | 9.0 | 0.00 | 0.00 | 0.00 | 63 | 1009.0 |
| 20260903231517 | 92 | 135 | 5.0 | 11.0 | 0.00 | 0.00 | 0.00 | 62 | 1008.9 |
| 20260903230517 | 92 | 113 | 5.0 | 12.0 | 0.00 | 0.00 | 0.00 | 62 | 1008.9 |
| 20260903225537 | 92 | 113 | 5.0 | 11.0 | 0.00 | 0.00 | 0.00 | 62 | 1009.0 |
| 20260903224536 | 93 | 113 | 5.0 | 15.0 | 0.00 | 0.00 | 0.00 | 60 | 1008.9 |
| 20260903223517 | 93 | 158 | 5.0 | 10.0 | 0.00 | 0.00 | 0.00 | 60 | 1008.9 |
| 20260903222516 | 94 | 158 | 4.0 | 9.0 | 0.00 | 0.00 | 0.00 | 60 | 1009.0 |
| 20260903221517 | 93 | 180 | 4.0 | 10.0 | 0.00 | 0.00 | 0.00 | 60 | 1008.9 |
| 20260903220517 | 94 | 158 | 5.0 | 11.0 | 0.00 | 0.00 | 0.00 | 61 | 1009.0 |
| 20260903215516 | 94 | 135 | 5.0 | 10.0 | 0.00 | 0.00 | 0.00 | 60 | 1009.2 |
| 20260903214517 | 94 | 135 | 4.0 | 9.0 | 0.00 | 0.00 | 0.00 | 60 | 1009.2 |
| 20260903213516 | 94 | 113 | 4.0 | 10.0 | 0.00 | 0.00 | 0.00 | 60 | 1009.2 |
| 20260903212516 | 95 | 158 | 5.0 | 11.0 | 0.00 | 0.00 | 0.00 | 59 | 1009.3 |
| 20260903211537 | 95 | 158 | 5.0 | 11.0 | 0.00 | 0.00 | 0.00 | 59 | 1009.5 |
| 20260903210517 | 95 | 180 | 6.0 | 12.0 | 0.00 | 0.00 | 0.00 | 59 | 1009.6 |
| 20260903205516 | 95 | 158 | 5.0 | 11.0 | 0.00 | 0.00 | 0.00 | 60 | 1009.8 |
| 20260903204516 | 94 | 158 | 5.0 | 14.0 | 0.00 | 0.00 | 0.00 | 60 | 1009.8 |
| 20260903203517 | 94 | 135 | 5.0 | 13.0 | 0.00 | 0.00 | 0.00 | 62 | 1010.0 |
| 20260903202536 | 94 | 158 | 6.0 | 12.0 | 0.00 | 0.00 | 0.00 | 61 | 1009.9 |
| 20260903201516 | 94 | 135 | 6.0 | 13.0 | 0.00 | 0.00 | 0.00 | 61 | 1010.1 |
| 20260903200517 | 95 | 135 | 4.0 | 9.0 | 0.00 | 0.00 | 0.00 | 61 | 1010.1 |
| 20260903195617 | 95 | 90 | 5.0 | 11.0 | 0.00 | 0.00 | 0.00 | 62 | 1010.2 |
| 20260903194517 | 95 | 158 | 6.0 | 14.0 | 0.00 | 0.00 | 0.00 | 62 | 1010.2 |
| 20260903193557 | 93 | 158 | 6.0 | 13.0 | 0.00 | 0.00 | 0.00 | 64 | 1010.3 |
| 20260903192537 | 92 | 113 | 5.0 | 12.0 | 0.00 | 0.00 | 0.00 | 64 | 1010.5 |
| 20260903191517 | 94 | 158 | 5.0 | 14.0 | 0.00 | 0.00 | 0.00 | 62 | 1010.6 |
| 20260903190516 | 95 | 158 | 5.0 | 12.0 | 0.00 | 0.00 | 0.00 | 61 | 1010.8 |
| 20260903185516 | 94 | 135 | 5.0 | 10.0 | 0.00 | 0.00 | 0.00 | 62 | 1010.9 |
| 20260903184536 | 94 | 135 | 5.0 | 11.0 | 0.00 | 0.00 | 0.00 | 63 | 1011.1 |
| 20260903183536 | 94 | 135 | 6.0 | 16.0 | 0.00 | 0.00 | 0.00 | 62 | 1011.3 |
| 20260903182516 | 94 | 158 | 6.0 | 12.0 | 0.00 | 0.00 | 0.00 | 63 | 1011.4 |
| 20260903181537 | 94 | 158 | 6.0 | 13.0 | 0.00 | 0.00 | 0.00 | 62 | 1011.4 |
| 20260903180516 | 95 | 158 | 5.0 | 9.0 | 0.00 | 0.00 | 0.00 | 62 | 1011.5 |
| 20260903175536 | 94 | 158 | 4.0 | 9.0 | 0.00 | 0.00 | 0.00 | 64 | 1011.6 |
| 20260903174537 | 93 | 158 | 4.0 | 8.0 | 0.00 | 0.00 | 0.00 | 64 | 1011.8 |
| 20260903173516 | 92 | 158 | 4.0 | 9.0 | 0.00 | 0.00 | 0.00 | 65 | 1011.8 |
| 20260903172517 | 92 | 135 | 4.0 | 10.0 | 0.00 | 0.00 | 0.00 | 65 | 1012.0 |
| 20260903171516 | 92 | 158 | 5.0 | 11.0 | 0.00 | 0.00 | 0.00 | 64 | 1012.1 |
| 20260903170516 | 92 | 113 | 4.0 | 9.0 | 0.00 | 0.00 | 0.00 | 66 | 1012.2 |
| 20260903165516 | 91 | 158 | 5.0 | 11.0 | 0.00 | 0.00 | 0.00 | 68 | 1012.2 |
| 20260903164517 | 90 | 158 | 5.0 | 11.0 | 0.00 | 0.00 | 0.00 | 68 | 1012.3 |
| 20260903163517 | 90 | 158 | 5.0 | 11.0 | 0.00 | 0.00 | 0.00 | 68 | 1012.4 |
| 20260903162557 | 89 | 158 | 5.0 | 11.0 | 0.00 | 0.00 | 0.00 | 70 | 1012.4 |
| 20260903161517 | 88 | 135 | 4.0 | 9.0 | 0.00 | 0.00 | 0.00 | 70 | 1012.3 |
| 20260903160517 | 88 | 180 | 5.0 | 10.0 | 0.00 | 0.00 | 0.00 | 70 | 1012.4 |
| 20260903155517 | 89 | 158 | 4.0 | 9.0 | 0.00 | 0.00 | 0.00 | 70 | 1012.4 |
| 20260903154516 | 89 | 158 | 4.0 | 10.0 | 0.00 | 0.00 | 0.00 | 71 | 1012.3 |
| 20260903153517 | 88 | 158 | 5.0 | 13.0 | 0.00 | 0.00 | 0.00 | 71 | 1012.2 |
| 20260903152516 | 86 | 113 | 2.0 | 9.0 | 0.00 | 0.00 | 0.00 | 73 | 1012.2 |
| 20260903151517 | 86 | 135 | 4.0 | 11.0 | 0.00 | 0.00 | 0.00 | 74 | 1012.1 |
| 20260903150517 | 85 | 135 | 4.0 | 10.0 | 0.00 | 0.00 | 0.00 | 74 | 1012.1 |
| 20260903145517 | 85 | 135 | 4.0 | 9.0 | 0.00 | 0.00 | 0.00 | 76 | 1012.3 |
| 20260903144516 | 83 | 135 | 5.0 | 9.0 | 0.00 | 0.00 | 0.00 | 78 | 1012.5 |
| 20260903143536 | 82 | 158 | 3.0 | 8.0 | 0.00 | 0.00 | 0.00 | 79 | 1012.5 |
| 20260903142517 | 81 | 135 | 3.0 | 7.0 | 0.00 | 0.00 | 0.00 | 80 | 1012.4 |
| 20260903141516 | 80 | 135 | 3.0 | 8.0 | 0.00 | 0.00 | 0.00 | 81 | 1012.3 |
| 20260903140516 | 80 | 113 | 3.0 | 6.0 | 0.00 | 0.00 | 0.00 | 82 | 1012.4 |
| 20260903135516 | 79 | 113 | 2.0 | 4.0 | 0.00 | 0.00 | 0.00 | 82 | 1012.2 |
| 20260903134517 | 79 | 113 | 2.0 | 4.0 | 0.00 | 0.00 | 0.00 | 82 | 1012.2 |
| 20260903133516 | 79 | 135 | 2.0 | 4.0 | 0.00 | 0.00 | 0.00 | 82 | 1012.2 |
| 20260903132517 | 79 | 113 | 3.0 | 7.0 | 0.00 | 0.00 | 0.00 | 82 | 1012.2 |
| 20260903131517 | 79 | 113 | 1.0 | 3.0 | 0.00 | 0.00 | 0.00 | 82 | 1012.0 |
| 20260903130517 | 79 | 113 | 2.0 | 6.0 | 0.00 | 0.00 | 0.00 | 82 | 1012.2 |
| 20260903125537 | 78 | 135 | 2.0 | 5.0 | 0.00 | 0.00 | 0.00 | 82 | 1012.1 |
| 20260903124517 | 78 | 135 | 2.0 | 4.0 | 0.00 | 0.00 | 0.00 | 83 | 1012.0 |
| 20260903123516 | 77 | 135 | 1.0 | 3.0 | 0.00 | 0.00 | 0.00 | 83 | 1011.9 |
| 20260903122516 | 77 | 135 | 1.0 | 3.0 | 0.00 | 0.00 | 0.00 | 83 | 1011.9 |
| 20260903121517 | 77 | 0.0 | 2.0 | 0.00 | 0.00 | 0.00 | 82 | 1011.7 | |
| 20260903120557 | 77 | 0.0 | 2.0 | 0.00 | 0.00 | 0.00 | 82 | 1011.7 | |
| 20260903115517 | 77 | 135 | 1.0 | 2.0 | 0.00 | 0.00 | 0.00 | 82 | 1011.9 |
| 20260903114516 | 77 | 135 | 1.0 | 3.0 | 0.00 | 0.00 | 0.00 | 83 | 1011.9 |
| 20260903113536 | 77 | 135 | 1.0 | 4.0 | 0.00 | 0.00 | 0.00 | 83 | 1011.8 |
| 20260903112517 | 77 | 135 | 1.0 | 3.0 | 0.00 | 0.00 | 0.00 | 83 | 1011.9 |
| 20260903111517 | 77 | 0.0 | 3.0 | 0.00 | 0.00 | 0.00 | 83 | 1011.7 | |
| 20260903110517 | 77 | 135 | 1.0 | 2.0 | 0.00 | 0.00 | 0.00 | 83 | 1011.6 |
| 20260903105516 | 77 | 0.0 | 0.0 | 0.00 | 0.00 | 0.00 | 83 | 1011.5 | |
| 20260903104516 | 77 | 135 | 1.0 | 3.0 | 0.00 | 0.00 | 0.00 | 83 | 1011.4 |
| 20260903103517 | 77 | 0.0 | 0.0 | 0.00 | 0.00 | 0.00 | 83 | 1011.3 | |
| 20260903102536 | 77 | 0.0 | 0.0 | 0.00 | 0.00 | 0.00 | 82 | 1011.4 | |
| 20260903101516 | 77 | 0.0 | 0.0 | 0.00 | 0.00 | 0.00 | 82 | 1011.5 | |
| 20260903100516 | 77 | 0.0 | 1.0 | 0.00 | 0.00 | 0.00 | 82 | 1011.4 | |
| 20260903095517 | 78 | 0.0 | 2.0 | 0.00 | 0.00 | 0.00 | 82 | 1011.5 | |
| 20260903094516 | 78 | 0.0 | 2.0 | 0.00 | 0.00 | 0.00 | 82 | 1011.5 | |
| 20260903093516 | 78 | 0.0 | 2.0 | 0.00 | 0.00 | 0.00 | 81 | 1011.4 | |
| 20260903092537 | 78 | 135 | 1.0 | 2.0 | 0.00 | 0.00 | 0.00 | 81 | 1011.5 |
| 20260903091537 | 78 | 135 | 1.0 | 4.0 | 0.00 | 0.00 | 0.00 | 81 | 1011.4 |
| 20260903090516 | 78 | 135 | 1.0 | 2.0 | 0.00 | 0.00 | 0.00 | 81 | 1011.6 |
| 20260903085517 | 78 | 113 | 1.0 | 3.0 | 0.00 | 0.00 | 0.00 | 81 | 1011.5 |
| 20260903084516 | 78 | 0.0 | 0.0 | 0.00 | 0.00 | 0.00 | 81 | 1011.5 | |
| 20260903083517 | 78 | 0.0 | 0.0 | 0.00 | 0.00 | 0.00 | 80 | 1011.5 | |
| 20260903082517 | 79 | 113 | 1.0 | 3.0 | 0.00 | 0.00 | 0.00 | 80 | 1011.4 |
| 20260903081516 | 79 | 113 | 1.0 | 3.0 | 0.00 | 0.00 | 0.00 | 80 | 1011.5 |
| 20260903080537 | 79 | 113 | 1.0 | 3.0 | 0.00 | 0.00 | 0.00 | 80 | 1011.5 |
| 20260903075516 | 79 | 113 | 2.0 | 4.0 | 0.00 | 0.00 | 0.00 | 79 | 1011.5 |
| 20260903074517 | 79 | 113 | 1.0 | 4.0 | 0.00 | 0.00 | 0.00 | 79 | 1011.6 |
| 20260903073536 | 79 | 113 | 1.0 | 2.0 | 0.00 | 0.00 | 0.00 | 78 | 1011.5 |
| 20260903072540 | 80 | 113 | 1.0 | 2.0 | 0.00 | 0.00 | 0.00 | 77 | 1011.4 |
| 20260903072016 | 80 | 113 | 1.0 | 4.0 | 0.00 | 0.00 | 0.00 | 77 | 1011.5 |
| 20260903071017 | 80 | 113 | 1.0 | 3.0 | 0.00 | 0.00 | 0.00 | 77 | 1011.5 |
| 20260903070016 | 80 | 113 | 1.0 | 3.0 | 0.00 | 0.00 | 0.00 | 76 | 1011.6 |
| 20260903065016 | 81 | 113 | 2.0 | 5.0 | 0.00 | 0.00 | 0.00 | 75 | 1011.8 |
| 20260903064017 | 81 | 113 | 2.0 | 6.0 | 0.00 | 0.00 | 0.00 | 75 | 1011.8 |
| 20260903063016 | 81 | 135 | 2.0 | 4.0 | 0.00 | 0.00 | 0.00 | 74 | 1011.8 |
| 20260903062017 | 82 | 113 | 2.0 | 6.0 | 0.00 | 0.00 | 0.00 | 73 | 1011.8 |
| 20260903061016 | 82 | 135 | 2.0 | 6.0 | 0.00 | 0.00 | 0.00 | 72 | 1011.9 |
| 20260903060016 | 82 | 113 | 3.0 | 7.0 | 0.00 | 0.00 | 0.00 | 72 | 1012.0 |
| 20260903055017 | 83 | 113 | 3.0 | 10.0 | 0.00 | 0.00 | 0.00 | 71 | 1011.9 |
| 20260903054016 | 83 | 135 | 3.0 | 8.0 | 0.00 | 0.00 | 0.00 | 71 | 1011.9 |
| 20260903053016 | 83 | 113 | 2.0 | 6.0 | 0.00 | 0.00 | 0.00 | 70 | 1011.8 |
| 20260903052016 | 84 | 113 | 3.0 | 7.0 | 0.00 | 0.00 | 0.00 | 69 | 1011.9 |
| 20260903051016 | 84 | 135 | 3.0 | 8.0 | 0.00 | 0.00 | 0.00 | 68 | 1011.9 |
| 20260903050036 | 84 | 113 | 2.0 | 4.0 | 0.00 | 0.00 | 0.00 | 68 | 1011.8 |
| 20260903045017 | 84 | 113 | 2.0 | 4.0 | 0.00 | 0.00 | 0.00 | 67 | 1011.9 |
| 20260903044037 | 85 | 113 | 4.0 | 8.0 | 0.00 | 0.00 | 0.00 | 66 | 1011.8 |
| 20260903043017 | 85 | 113 | 4.0 | 8.0 | 0.00 | 0.00 | 0.00 | 65 | 1011.8 |
| 20260903042017 | 85 | 135 | 4.0 | 10.0 | 0.00 | 0.00 | 0.00 | 64 | 1011.9 |
| 20260903041017 | 86 | 113 | 3.0 | 11.0 | 0.00 | 0.00 | 0.00 | 64 | 1012.0 |
| 20260903040017 | 86 | 90 | 2.0 | 6.0 | 0.00 | 0.00 | 0.00 | 63 | 1011.9 |
| 20260903035017 | 87 | 113 | 4.0 | 12.0 | 0.00 | 0.00 | 0.00 | 62 | 1011.8 |
| 20260903034017 | 88 | 113 | 5.0 | 11.0 | 0.00 | 0.00 | 0.00 | 62 | 1011.8 |
| 20260903033017 | 88 | 113 | 4.0 | 8.0 | 0.00 | 0.00 | 0.00 | 61 | 1011.7 |
| 20260903032017 | 89 | 135 | 5.0 | 9.0 | 0.00 | 0.00 | 0.00 | 60 | 1011.7 |